Zurück zum Katalog

COSMOS 2226

AktivMilitärLEO
NORAD 22282·PAYLOAD·🇷🇺 Russia

Gestartet Dec 22, 1992 von Plesetsk Cosmodrome

Loading…

Nächste Überflüge (nächste 24 Stunden)

TLE

AktuellSource: Space-Track

Epoche: Sep 14, 2026, 05:13 UTC

1 22282U 92092A   26257.21745152  .00000003  00000-0  15223-3 0  9996
2 22282  73.6284 346.4192 0030033 259.3183 126.1939 12.41306540528256

Verfolge COSMOS 2226 in Echtzeit mit AllMySat

Download on the App Store